User: anonymous   Login
Location: Unspecified
(0.0000°N, 0.0000°E)
Time: 08:07:18
(UTC+00:00)
Language:

APRIZESAT 1 (LATINSAT C) - Orbit

View from above orbital plane
View from above orbital plane
View from above satellite
View from above satellite

Ground track
Ground track

The orbit data is extracted from the following two-line orbital elements,

1 28372U 04025G   19345.78917899 -.00000021 +00000-0 +65269-5 0  9990
2 28372 098.3682 290.8048 0046010 194.0489 165.9428 14.49608090817009
Epoch (UTC): 11 December 2019 18:56:25
Eccentricity: 0.0046010
inclination: 98.3682°
perigee height: 694 km
apogee height: 759 km
right ascension of ascending node: 290.8048°
argument of perigee: 194.0489°
revolutions per day: 14.49608090
mean anomaly at epoch: 165.9428°
orbit number at epoch: 81700

The dashed part of the orbit path shows where the satellite is in the earth's shadow,  

DLR